Location: *
(55.5817°S, 142.4781°W)
Time: 06:22:37
(UTC+00:00)

SL-4 R/B - Pass Details

Date: 29 April 2025
Orbit: 394 x 551 km, 51.6° (Epoch: 23 May)

Event Time Altitude Azimuth Distance (km) Brightness Sun altitude
Exits shadow 15:01:32 13° 321° (NW) 1,653 4.1 -15.7°
Maximum altitude 15:04:46 33° 21° (NNE) 948 3.4 -15.2°
Drops below altitude 10° 15:08:30 10° 85° (E) 1,813 6.1 -14.7°
Sets 15:10:50 0° 95° (E) 2,684 7.3 -14.4°
